Weather History for Parkersburg, WV

Change the Weather History Date:

Monday, May 20, 2013

  Actual Average Record
Temperature  
Mean Temperature 73 °F 63 °F  
Max Temperature 81 °F 75 °F 94 °F (1911)
Min Temperature 65 °F 52 °F 37 °F (2002)
Cooling Degree Days 8 2  
Month to date cooling degree days 42 29  
Year to date cooling degree days 71 50  
Growing Degree Days 22 (Base 50)    
Moisture  
Dew Point 65 °F    
Average Humidity 80    
Maximum Humidity 93    
Minimum Humidity 67    
Precipitation  
Precipitation 0.00 in 0.14 in 0.98 in (2003)
Month to date precipitation 2.63 2.68  
Year to date precipitation 12.46 15.33  
Sea Level Pressure  
Sea Level Pressure 30.02 in    
Wind  
Wind Speed 5 mph (South)    
Max Wind Speed 9 mph    
Max Gust Speed -    
Visibility 10 miles    
Events      
T = Trace of Precipitation, MM = Missing Value Source: NWS Daily Summary

Daily Weather History Graph

Daily Weather History Graph

Search for Another Location

Airport:

Trip Planner

Search our weather history database for the weather conditions in past years. The results will help you decide how hot, cold, wet, or windy it might be!

Date:

Astronomy

May. 20, 2013 Rise Set
Actual Time 6:07 AM EDT 8:37 PM EDT
Civil Twilight 5:37 AM EDT 9:08 PM EDT
Nautical Twilight 4:58 AM EDT 9:46 PM EDT
Astronomical Twilight 4:16 AM EDT 10:28 PM EDT
Moon 3:45 PM EDT (5/20) 3:00 AM EDT (5/20)
Length of Visible Light 15h 31m
Length of Day
14h 29m
Waxing Gibbous, 75% of the Moon is Illuminated
May 20
Waxing Gibbous
May 25
Full
May 31
Last Quarter
Jun 8
New
Jun 16
First Quarter

Hourly Weather History & Observations

Time (EDT) Temp. Heat Index Dew Point Humidity Pressure Visibility Wind Dir Wind Speed Gust Speed Precip Events Conditions
12:53 AM 68.0 °F - 63.0 °F 84% 30.01 in 10.0 mi Calm Calm - N/A   Clear
1:53 AM 68.0 °F - 62.1 °F 81% 29.99 in 10.0 mi SSE 5.8 mph - N/A   Clear
2:53 AM 66.9 °F - 62.1 °F 84% 30.01 in 10.0 mi South 4.6 mph - N/A   Mostly Cloudy
4:53 AM 64.9 °F - 62.1 °F 90% 30.01 in 10.0 mi South 5.8 mph - N/A   Scattered Clouds
5:11 AM 66.2 °F - 62.6 °F 88% 30.03 in 10.0 mi South 5.8 mph - N/A   Mostly Cloudy
5:53 AM 66.0 °F - 62.1 °F 87% 30.02 in 10.0 mi South 4.6 mph - N/A   Overcast
6:00 AM 66.2 °F - 62.6 °F 88% 30.04 in 10.0 mi South 5.8 mph - N/A   Mostly Cloudy
6:53 AM 66.0 °F - 62.1 °F 87% 30.03 in 10.0 mi Calm Calm - N/A   Scattered Clouds
7:53 AM 68.0 °F - 63.0 °F 84% 30.04 in 10.0 mi South 4.6 mph - N/A   Scattered Clouds
8:13 AM 69.8 °F - 64.4 °F 83% 30.07 in 10.0 mi SSW 6.9 mph - N/A   Overcast
8:53 AM 70.0 °F - 64.0 °F 81% 30.06 in 10.0 mi South 4.6 mph - N/A   Overcast
9:33 AM 71.6 °F - 64.4 °F 78% 30.07 in 10.0 mi Variable 5.8 mph - N/A   Partly Cloudy
9:53 AM 73.0 °F - 64.9 °F 76% 30.05 in 10.0 mi South 5.8 mph - N/A   Partly Cloudy
10:18 AM 73.4 °F - 66.2 °F 78% 30.07 in 10.0 mi SSW 9.2 mph - N/A   Mostly Cloudy
10:53 AM 73.9 °F - 64.9 °F 73% 30.05 in 10.0 mi SW 6.9 mph - N/A   Mostly Cloudy
11:32 AM 75.2 °F - 66.2 °F 73% 30.08 in 10.0 mi South 6.9 mph - N/A   Scattered Clouds
11:53 AM 75.9 °F - 66.9 °F 74% 30.05 in 10.0 mi SSW 8.1 mph - N/A   Mostly Cloudy
12:53 PM 77.0 °F - 66.9 °F 71% 30.05 in 10.0 mi SSW 9.2 mph - N/A   Overcast
1:53 PM 77.0 °F - 66.9 °F 71% 30.04 in 10.0 mi SSW 5.8 mph - N/A   Mostly Cloudy
2:53 PM 80.1 °F 82.7 °F 68.0 °F 67% 30.03 in 10.0 mi Variable 6.9 mph - N/A   Mostly Cloudy
3:15 PM 80.6 °F 83.2 °F 68.0 °F 65% 30.03 in 10.0 mi South 4.6 mph - N/A   Scattered Clouds
3:48 PM 78.8 °F - 68.0 °F 69% 30.03 in 10.0 mi SW 8.1 mph - N/A   Mostly Cloudy
3:53 PM 79.0 °F - 68.0 °F 69% 30.01 in 10.0 mi South 8.1 mph - N/A   Mostly Cloudy
4:09 PM 80.6 °F 83.2 °F 68.0 °F 65% 30.02 in 10.0 mi South 8.1 mph - N/A   Mostly Cloudy
4:53 PM 79.0 °F - 68.0 °F 69% 30.00 in 10.0 mi SSW 8.1 mph - N/A   Scattered Clouds
5:53 PM 80.1 °F 82.9 °F 69.1 °F 69% 29.98 in 10.0 mi SW 5.8 mph - N/A   Partly Cloudy
6:53 PM 78.1 °F - 68.0 °F 71% 29.98 in 10.0 mi South 9.2 mph - N/A   Clear
7:53 PM 75.9 °F - 66.9 °F 74% 29.98 in 10.0 mi South 6.9 mph - N/A   Clear
8:53 PM 73.9 °F - 66.9 °F 79% 29.99 in 10.0 mi South 3.5 mph - N/A   Clear
10:53 PM 70.0 °F - 66.9 °F 90% 29.99 in 10.0 mi South 4.6 mph - N/A   Clear
11:53 PM 69.1 °F - 66.9 °F 93% 29.96 in 6.0 mi SSE 3.5 mph - N/A   Clear